Shreveport Downtown, LA

9:15 PM CDT on June 28, 2017 (GMT -0500)
Shreveport Downtown

Weather History for KDTN - July, 2013

Change the Weather History Date:

Friday, July 26, 2013

  Actual Average (KBAD) Record (KBAD)
Temperature  
Mean Temperature 80 °F -  
Max Temperature 88 °F 90 °F 101 °F (2015)
Min Temperature 71 °F 71 °F 64 °F (2000)
Cooling Degree Days 14    
Growing Degree Days 30 (Base 50)    
Moisture  
Dew Point 72 °F    
Average Humidity 81    
Maximum Humidity 100    
Minimum Humidity 63    
Precipitation  
Precipitation 0.69 in - - ()
Sea Level Pressure  
Sea Level Pressure 29.95 in    
Wind  
Wind Speed 7 mph (East)    
Max Wind Speed 16 mph    
Max Gust Speed 25 mph    
Visibility 8 miles    
Events Rain , Thunderstorm    
Averages and records for this station are not official NWS values.
T = Trace of Precipitation, MM = Missing Value Source: NWS Daily Summary

Daily Weather History Graph

Daily Weather History Graph

Search for Another Location

Airport or City:

Trip Planner

Search our weather history database for the weather conditions in past years. The results will help you decide how hot, cold, wet, or windy it might be!

Date:

Astronomy

Jul. 26, 2013 Rise Set
Actual Time 6:25 AM CDT 8:17 PM CDT
Civil Twilight 5:58 AM CDT 8:44 PM CDT
Nautical Twilight 5:25 AM CDT 9:17 PM CDT
Astronomical Twilight 4:50 AM CDT 9:51 PM CDT
Moon 10:52 PM CDT (7/26) 10:43 AM CDT (7/26)
Length of Visible Light 14h 46m
Length of Day
13h 51m
Waning Gibbous, 80% of the Moon is Illuminated
Jul 26
Waning Gibbous
Jul 29
Last Quarter
Aug 6
New
Aug 14
First Quarter
Aug 20
Full

Hourly Weather History & Observations

Time (CDT) Temp. Heat Index Dew Point Humidity Pressure Visibility Wind Dir Wind Speed Gust Speed Precip Events Conditions
12:53 AM 80.1 °F 83.2 °F 70.0 °F 71% 30.02 in 10.0 mi SE 5.8 mph - N/A   Clear
1:53 AM 79.0 °F - 69.1 °F 72% 30.01 in 10.0 mi SE 4.6 mph - N/A   Clear
2:53 AM 78.1 °F - 69.1 °F 74% 30.02 in 10.0 mi SE 4.6 mph - N/A   Clear
3:53 AM 75.9 °F - 69.1 °F 79% 30.01 in 10.0 mi ESE 5.8 mph - N/A   Clear
4:53 AM 75.0 °F - 68.0 °F 79% 30.01 in 10.0 mi ESE 4.6 mph - N/A   Partly Cloudy
5:53 AM 75.0 °F - 66.9 °F 76% 30.01 in 10.0 mi ESE 6.9 mph - N/A   Clear
6:53 AM 75.0 °F - 66.9 °F 76% 30.02 in 10.0 mi ESE 6.9 mph - N/A   Clear
7:53 AM 78.1 °F - 68.0 °F 71% 30.03 in 10.0 mi SSE 10.4 mph - N/A   Mostly Cloudy
8:53 AM 79.0 °F - 71.1 °F 77% 30.02 in 10.0 mi SE 6.9 mph - N/A   Scattered Clouds
9:53 AM 80.1 °F 83.8 °F 72.0 °F 76% 30.04 in 10.0 mi SE 4.6 mph - N/A   Partly Cloudy
10:53 AM 81.0 °F 85.8 °F 73.0 °F 77% 30.03 in 10.0 mi SE 3.5 mph - N/A   Clear
11:53 AM 84.9 °F 91.4 °F 73.0 °F 67% 30.02 in 10.0 mi South 6.9 mph - N/A   Clear
12:53 PM 87.1 °F 94.5 °F 73.0 °F 63% 30.00 in 10.0 mi South 9.2 mph - N/A   Mostly Cloudy
1:53 PM 87.1 °F 94.5 °F 73.0 °F 63% 29.98 in 10.0 mi South 5.8 mph - N/A   Overcast
2:53 PM 80.1 °F 84.5 °F 73.9 °F 81% 29.97 in 10.0 mi NNE 10.4 mph - N/A   Overcast
3:53 PM 79.0 °F - 72.0 °F 79% 29.96 in 10.0 mi NNE 6.9 mph - N/A   Scattered Clouds
4:53 PM 78.1 °F - 72.0 °F 81% 29.94 in 10.0 mi NE 5.8 mph - 0.00 in   Mostly Cloudy
5:53 PM 82.0 °F 87.4 °F 73.0 °F 74% 29.91 in 10.0 mi East 6.9 mph - N/A   Clear
6:53 PM 80.1 °F 84.2 °F 73.0 °F 79% 29.89 in 10.0 mi East 8.1 mph - N/A   Partly Cloudy
7:53 PM 79.0 °F - 73.0 °F 82% 29.86 in 10.0 mi SE 6.9 mph - N/A   Scattered Clouds
8:53 PM 79.0 °F - 73.9 °F 84% 29.86 in 10.0 mi SE 6.9 mph - N/A   Partly Cloudy
9:53 PM 78.1 °F - 75.0 °F 90% 29.86 in 7.0 mi SE 3.5 mph - 0.02 in Rain Light Rain
10:53 PM 79.0 °F - 75.9 °F 90% 29.88 in 4.0 mi NNE 5.8 mph - 0.03 in Rain , Thunderstorm Light Rain
11:08 PM 77.0 °F - 75.2 °F 94% 29.88 in 2.5 mi NE 3.5 mph - 0.08 in Rain Heavy Rain
11:16 PM 77.0 °F - 75.2 °F 94% 29.88 in 3.0 mi Variable 4.6 mph - 0.10 in Rain , Thunderstorm Rain
11:26 PM 75.2 °F - 73.4 °F 94% 29.90 in 2.5 mi North 15.0 mph 24.2 mph 0.21 in Rain , Thunderstorm Heavy Rain
11:31 PM 75.2 °F - 73.4 °F 94% 29.90 in 1.5 mi Variable 4.6 mph 24.2 mph 0.29 in Rain , Thunderstorm Heavy Rain
11:40 PM 73.4 °F - 71.6 °F 94% 29.92 in 3.0 mi NNW 12.7 mph 25.3 mph 0.32 in Rain , Thunderstorm Light Thunderstorms and Rain
11:47 PM 73.4 °F - 71.6 °F 94% 29.92 in 2.0 mi North 16.1 mph 24.2 mph 0.42 in Rain , Thunderstorm Heavy Thunderstorms and Rain
11:53 PM 72.0 °F - 71.1 °F 97% 29.91 in 1.2 mi North 15.0 mph 23.0 mph 0.64 in Rain , Thunderstorm Heavy Thunderstorms and Rain
11:58 PM 71.6 °F - 71.6 °F 100% 29.90 in 0.8 mi NNE 10.4 mph 23.0 mph 0.25 in Rain , Thunderstorm Heavy Thunderstorms and Rain